ARIANE 2 DEB, 33569

Orbit data source: Space-Track

ARIANE 2 DEB, 33569 is space debris in HEO originally from a launch on Fri, 27 Jan 1989 UTC launched from the French Guiana (FRGUI). Debris objects in space refer to the collection of defunct objects orbiting the Earth. Examples of debris include non-operational satellites, rocket bodies, and fragments generated from explosions, collisions, or faulty payload assembly.

Loading next visibility...
Identifier
33569, 1989-006BM
Orbit
HEO
Country
Flag of FRFR
Related business
Manufacturer
EADS/LV
Mission
Spacecraft
Bus & Motor
Unknown
Mass
Unknown
Launch date (UTC)
1989-01-27 (37 years ago)
Launch vehicle
Unknown
Launch site
French Guiana (FRGUI)
Object type
Payload
Rocket body
Debris
Shape & HBR
Unknown shape, 0.1 m
Radar Cross Section
Medium (>0.1 m² and <1 m²)

Expand to show TLE details & history
Last TLE update: 8 months ago

TLE from 8 months ago
0 ARIANE 2 DEB
1 33569U 89006BM  25104.12101409  .00000123  00000-0  67152-2 0  9998
2 33569   9.3728  13.3817 7096065 196.2407 352.3802  2.29278438159386
Epoch: 2025-04-14T02:54Z
TLE epoch observation values (Epoch: 2025-04-14T02:54:15.617Z)
Latitude
5.9203°
Longitude
-91.6189°
Altitude
2,189.833 km
Speed
8.754 km/s
True Right ascension
10h 17m 56s
True Declination
5° 53' 28"
Sunlit
Object was in daylight at epoch
Visualization orbit readout
Latitude
Unknown
Longitude
Unknown
Altitude
Unknown
Speed
Unknown
Apparent Right ascension
Unknown
Apparent Declination
Unknown
Sunlit
N/A
Visualization observer readout
Local Sidereal Time
13:24:35
Azimuth
Unknown
Elevation
Unknown
Doppler factor
Unknown
Orbital elements
Apogee altitude
35,163.004 km
Perigee altitude
678.035 km
Semi-major axis
24,298.657 km
Eccentricity
0.70961
Inclination
9.3728°
RAAN
13.3817°
Arg. of periapsis
196.2407°
True anomaly
304.54964°
Mean anomaly
352.3802°
Eccentric anomaly
335.55599°
Mean motion
0.57302 °/min
Orbital period
628.25 mins
BSTAR
0.0067152
Loading maneuver chart data...
Computing Atmospheric mass density...
Loading historical data...
Loading historical data...
Loading historical data...
Loading historical data...
Loading historical data...
Loading historical data...
Loading historical data...

Documentation

Showing up to 5 results
|